Starlink 4499

operational
NORAD ID: 53402 Int'l Des: 2022-097 Owner: SPXS Country: US Constellation: starlink
LEOCIRCULAR

关于 Starlink 4499

正在加载描述...

实时位置

正在加载3D地球...

即将过境

高度历史

Altitude vs Time

uPlot chart will show altitude changes over time

两行轨道根数

1 53402U 22097Q 25302.44296544 .00000811 00000-0 69075-4 0 9995
2 53402 53.2188 353.3100 0001513 97.9623 262.1540 15.08837815178703
Epoch: Oct 29, 2025 • Age: 12 hours

当前状态

高度 553.8 km
速度 7.58 km/s
星下点 -39.81°S, 72.59°W
发射日期 Aug 10, 2022
运行时间 3.2 years
类型 internet

技术详情

分类 Payload
质量 297.00 kg
干质量 275.00 kg
总质量 297.00 kg
长度 0.20 m
直径 2.80 m
跨度 9.00 m
形状 Box + pan
制造商 SPXS
平台类型 Starlink
阶段状态 In Orbit
所有者/国家 SPXS/US

大型星座

Loading constellations...